AirNav   Pilot Hours Calculator
 
 1499 users online  

15VA Fox Acres Airport
Warrenton, Virginia, USA

GOING TO WARRENTON?


FAA INFORMATION EFFECTIVE 25 APRIL 2019

Location

FAA Identifier: 15VA
Lat/Long: 38-43-20.4230N / 077-53-58.9810W
38-43.340383N / 077-53.983017W
38.7223397 / -77.8997169
(estimated)
Elevation: 450 ft. / 137 m (estimated)
Variation: 09W (1985)
From city: 5 miles E of WARRENTON, VA
Time zone: UTC -4 (UTC -5 during Standard Time)
Zip code: 20186

Airport Operations

Airport use: Private use. Permission required prior to landing
Activation date: 12/1983
Control tower: no
ARTCC: WASHINGTON CENTER
FSS: LEESBURG FLIGHT SERVICE STATION
Attendance: UNATNDD
Wind indicator: yes
Segmented circle: no

Airport Communications

WX AWOS-3 at CJR (12 nm S): 119.325 (540-727-0523)
WX AWOS-3 at HWY (12 nm SE): 120.350 (540-788-4078)
WX AWOS-3PT at HEF (18 nm E): PHONE 703-361-6160

Nearby radio navigation aids

VOR radial/distance  VOR name  Freq  Var
CSNr348/5.1CASANOVA VORTAC116.3006W
LDNr125/16.4LINDEN VORTAC114.3006W
AMLr246/23.9ARMEL VOR/DME113.5008W
BRVr321/34.6BROOKE VORTAC114.5009W
MRBr190/39.9MARTINSBURG VORTAC112.1007W

 
NDB name  Hdg/Dist  Freq  Var  ID
NAILR011/16.135110WMSQ -- ... --.-
CAVERNS096/26.824509WLUA .-.. ..- .-
SHANNON332/34.523710WEZF . --.. ..-.
DAVEE285/37.222309WDAA -.. .- .-
GEORGETOWN260/38.332309WGTN --. - -.

Airport Services

Runway Information

Runway 2/20

Dimensions: 1950 x 125 ft. / 594 x 38 m
Surface: turf
Runway edge markings: 02/20 RWY ENDS MARKED WITH CONES.
RUNWAY 2  RUNWAY 20
Traffic pattern: leftleft
Obstructions: 50 ft. pline, marked, 50 ft. from runwaynone

Airport Ownership and Management from official FAA records

Ownership: Privately-owned
Owner: CONRAD MILLER
9317 PINEY MT RD
WARRENTON, VA 20186
Phone 703-347-7015
Manager: CONRAD MILLER
9317 PINEY MT RD
WARRENTON, VA 20186
Phone 703-347-7015

Airport Operational Statistics

Aircraft based on the field: 1
Single engine airplanes: 1
    

Additional Remarks

FOR CD CTC POTOMAC APCH AT 866-709-4993.

Instrument Procedures

There are no published instrument procedures at 15VA.

Some nearby airports with instrument procedures:

KCJR - Culpeper Regional Airport (12 nm S)
KHWY - Warrenton-Fauquier Airport (12 nm SE)
2VG2 - Upperville Airport (15 nm N)
KHEF - Manassas Regional Airport/Harry P. Davis Field (18 nm E)
KFRR - Front Royal-Warren County Airport (20 nm NW)
 
Loc | Ops | Rwys | IFR | FBO | Links
Com | Nav | Svcs | Stats | Notes
Area around 15VA (Fox Acres Airport)
 
Road maps at: MapQuest Bing Google
 
Aerial photo
No photo
 
Sectional chart

 
Airport distance calculator
Flying to Fox Acres Airport? Find the distance to fly.

From to 15VA

Sunrise and sunset
Times for 26-Apr-2019
 Local
(UTC-4)
 Zulu
(UTC)
Morning civil twilight05:5309:53
Sunrise06:2110:21
Sunset19:5823:58
Evening civil twilight20:2600:26

Current date and time
Zulu (UTC)  26-Apr-2019 15:21:04
Local (UTC-4)  26-Apr-2019 11:21:04
 
METAR
KHWY 
12nm SE 
261455Z AUTO 18006KT 140V220 10SM SCT095 BKN110 22/16 A2951 RMK AO2 LTG DSNT E T02170155
KCJR 
16nm SW 
261455Z AUTO 18008KT 10SM SCT100 BKN120 20/17 A2952 RMK AO2 LTG DSNT E T02040168
KHEF 
18nm E 
261456Z 16016G22KT 10SM BKN110 21/17 A2950 RMK AO2 SLP999 6//// T02110172 58049 PNO $
KFRR 
20nm NW 
261455Z AUTO 20004KT 10SM SCT110 20/15 A2946 RMK AO1
TAF
KIAD 
25nm NE 
261139Z 2612/2718 17010KT P6SM -SHRA OVC060 FM261800 19016G25KT 5SM SHRA VCTS OVC035CB FM262100 28016G34KT P6SM -SHRA OVC060 FM270000 31017G27KT P6SM OVC060 FM270400 30014G21KT P6SM BKN070 FM271300 29017G32KT P6SM SKC
NOTAMs
Click for the latest NOTAMs
NOTAMs are issued by the DoD/FAA and will open in a separate window not controlled by AirNav.

 

 
 

Would you like to see your business listed on this page?

 If your business provides an interesting product or service to pilots, flight crews, aircraft, or users of the Fox Acres Airport, you should consider listing it here.  To start the listing process, click on the button below
 
Add a business
 

Other Pages about Fox Acres Airport

Update a link
 
Copyright © AirNav, LLC. All rights reserved. Privacy Policy  Contact